RH
52 35 33 30 28 22 23 30 36 23 80 65 55 80 77 55 61 71 43 9 10 23 43 27 17 21 16 17 12 5 4 3 3 4 6 8 7 5 4 4 4 3 2 2 1
33 50 49 31 26 17 17 25 28 29 25 50 51 54 73 73 65 67 73 38 9 11 33 47 28 21 23 20 18 16 8 5 5 6 6 7 8 11 13 7 5 5 5 5 4
48 31 24 43 34 31 18 14 15 12 17 24 23 15 37 69 68 68 74 74 41 10 14 43 49 32 21 21 20 16 20 13 10 10 11 11 10 12 12 22 25 18 11 7 9
29 46 30 20 35 25 22 26 20 18 13 16 16 19 12 38 56 69 80 77 82 47 11 21 50 50 36 18 16 18 21 22 18 20 16 14 13 15 18 32 32 31 26 23 27
23 31 41 35 29 21 17 16 19 22 18 15 16 13 17 13 26 55 72 86 84 85 58 12 31 53 52 37 16 12 21 27 21 25 27 14 10 11 17 32 36 39 34 28 31
27 28 29 34 34 28 23 20 15 16 17 18 17 18 16 18 12 25 59 74 88 91 96 30 14 35 53 52 42 26 25 27 24 25 29 28 16 12 19 20 31 39 38 35 43
34 30 26 29 38 38 30 26 26 24 16 14 18 19 19 20 16 14 37 61 76 90 94 92 34 15 29 44 53 55 43 44 32 26 28 28 27 24 26 24 29 36 37 42 47
46 42 46 50 48 48 46 47 35 37 29 15 14 18 24 18 16 18 20 35 48 74 94 96 94 69 29 29 35 39 51 52 47 43 35 33 25 31 30 28 26 30 34 41 47
22 46 46 53 73 59 55 54 58 48 41 30 18 15 23 20 20 18 18 20 31 41 65 90 94 94 86 66 44 42 43 45 50 44 42 44 31 31 31 30 27 27 30 36 43
32 35 59 64 74 75 66 59 57 49 43 43 32 26 25 23 20 18 20 17 17 28 41 67 83 88 92 96 84 58 45 48 50 44 46 51 58 49 48 60 37 24 26 31 38
34 33 65 93 92 84 72 69 56 38 37 54 57 49 45 32 31 22 15 16 18 16 20 36 57 72 93 95 92 87 84 64 48 43 55 49 51 58 61 51 25 20 21 34 39
13 36 59 98 98 100 82 47 67 78 70 74 70 60 49 41 33 32 23 18 16 19 33 29 22 73 86 75 75 93 89 75 75 80 60 67 62 42 38 30 23 18 34 41 45
10 28 63 98 98 92 72 76 100 82 73 67 79 72 60 41 43 38 28 26 21 22 29 37 53 80 78 70 72 77 87 99 90 89 78 78 75 41 38 30 19 27 52 34 47
14 11 41 93 99 73 59 100 100 98 100 67 54 59 56 56 37 51 38 32 27 25 33 26 34 51 70 67 76 71 79 87 90 92 81 72 54 45 45 39 69 78 40 36 52
21 8 30 80 92 95 64 100 98 99 99 75 65 59 62 48 52 56 52 41 32 36 33 30 42 51 67 93 98 92 98 88 84 81 71 72 73 65 85 93 83 63 58 57 45
25 12 14 48 70 90 100 99 99 100 81 63 52 42 58 49 57 68 58 51 46 43 36 40 48 54 62 88 96 92 88 89 89 87 70 76 80 63 76 76 67 68 48 59 62
25 14 8 42 95 98 100 97 100 94 65 58 43 46 60 65 63 59 53 48 44 43 35 43 37 40 45 54 67 76 81 80 78 79 71 72 73 69 71 70 73 75 69 62 42
23 14 9 29 83 98 99 96 98 63 66 52 41 54 62 70 54 56 54 46 44 44 47 55 55 55 65 72 96 97 95 87 79 73 68 65 61 66 73 76 81 71 51 44 39
18 11 9 26 67 100 88 98 69 40 65 57 64 68 62 60 49 56 52 54 50 47 53 56 49 60 68 92 96 89 90 94 88 79 70 68 65 74 77 65 52 54 40 45 66
12 10 10 41 78 99 100 95 51 52 65 64 61 65 58 58 57 58 62 59 65 72 68 66 64 75 87 92 93 88 84 78 78 79 76 71 70 75 66 47 46 48 62 69 47
7 13 18 45 100 99 94 74 69 93 93 84 77 65 69 61 64 63 64 59 80 78 74 69 72 74 82 77 95 97 92 99 99 96 89 79 70 74 82 78 64 86 92 57 55
5 13 64 98 99 98 86 84 89 95 97 91 93 87 82 68 64 68 60 82 72 67 61 75 76 69 83 90 97 97 98 99 90 81 78 76 67 69 65 80 97 89 72 40 39
4 10 99 100 98 87 90 93 99 95 85 82 97 85 82 71 68 70 82 86 70 69 74 81 60 64 71 78 87 84 88 96 98 99 87 80 66 78 98 95 97 89 81 81 72
5 6 100 100 97 97 96 95 97 94 79 86 94 89 85 76 70 71 81 72 76 68 64 67 62 60 61 92 94 92 100 100 98 88 85 73 81 96 98 95 67 83 54 58 91
5 5 100 98 99 94 96 100 93 92 72 73 90 82 88 69 80 78 80 84 76 71 61 58 61 71 82 88 88 88 91 100 92 91 87 88 91 99 96 94 81 70 68 68 88
7 25 100 98 92 94 100 99 97 97 70 62 66 82 87 70 79 81 88 87 84 78 72 66 69 71 72 90 90 84 93 94 95 98 88 100 90 100 94 90 90 91 89 82 94
10 100 98 90 91 100 85 85 81 87 70 75 91 84 78 76 95 95 93 94 98 89 73 76 78 76 78 85 89 69 87 91 90 97 96 91 94 96 91 90 89 80 82 88 78
Wind_Speed
45 44 44 41 40 43 46 41 39 38 41 37 35 33 36 37 36 31 29 26 24 23 20 18 18 16 14 12 9 8 7 6 6 7 4 3 6 5 3 4 6 9 11 10 9
49 47 45 45 43 42 46 45 43 43 39 38 37 37 35 36 38 37 32 29 26 26 24 21 20 19 17 15 13 12 11 10 10 10 10 9 8 9 9 8 8 9 11 12 14
50 50 49 46 46 45 45 43 43 43 42 41 41 39 39 38 37 42 36 33 30 28 28 26 23 20 19 19 18 17 15 13 13 15 14 13 12 12 11 13 10 12 13 14 13
55 51 51 51 48 46 46 46 44 42 40 39 41 42 42 41 38 39 40 35 34 31 29 29 27 24 23 22 22 21 20 17 16 19 18 16 16 14 14 13 13 13 15 15 15
58 56 54 51 50 48 46 47 46 44 42 39 38 40 44 41 43 42 42 39 37 35 32 31 31 29 27 24 24 25 24 21 21 21 20 18 20 17 19 15 16 16 17 17 18
56 58 57 55 53 51 48 47 46 45 44 41 41 39 38 39 44 40 43 41 41 39 35 34 33 33 31 29 26 26 25 24 25 25 21 21 21 19 22 20 20 19 19 19 20
55 56 57 57 54 52 50 48 47 46 45 44 43 41 36 36 43 41 42 42 42 40 38 37 36 37 36 35 30 28 28 26 27 27 24 25 23 24 22 22 24 23 22 22 23
56 56 55 54 55 54 53 49 48 47 46 46 45 43 35 40 36 37 40 40 42 42 41 41 41 40 37 38 34 32 32 32 30 28 27 28 26 26 26 25 26 26 26 26 25
54 57 56 55 52 55 54 53 50 49 48 46 45 43 39 40 35 37 39 42 42 43 43 45 44 43 43 40 38 36 36 36 33 32 32 31 27 32 29 29 28 30 31 30 28
57 55 55 54 54 55 57 55 54 52 50 49 46 43 39 38 38 38 37 42 42 43 43 46 47 43 42 43 39 42 41 38 37 36 36 35 29 35 34 34 30 33 35 33 32
58 56 56 47 50 54 58 56 55 56 52 46 42 41 40 40 39 39 39 40 39 45 45 42 45 44 38 43 46 47 45 42 38 41 42 38 35 35 38 30 32 34 35 36 37
59 57 56 50 48 52 56 55 54 53 52 48 46 44 43 42 42 41 42 42 40 38 40 45 44 31 39 45 47 45 46 42 44 50 51 46 42 37 39 35 32 34 34 40 38
63 59 56 51 50 54 53 49 51 52 53 51 48 46 42 44 42 42 44 42 40 39 39 40 37 39 41 41 43 43 47 46 49 49 53 54 49 38 38 39 34 33 40 40 42
68 62 58 59 47 53 49 46 48 48 52 52 51 47 45 41 43 41 43 41 42 38 36 42 42 41 42 41 40 41 40 44 45 47 49 50 48 36 37 39 44 41 38 40 43
71 67 62 62 56 48 47 48 53 54 55 51 48 47 44 46 37 40 39 42 40 34 38 40 37 38 39 35 37 38 41 44 44 44 46 46 52 45 38 40 40 38 40 45 40
75 72 67 61 63 57 50 55 58 62 58 50 47 46 43 45 40 39 41 41 40 39 40 39 39 40 39 40 39 36 36 37 40 43 49 43 45 49 34 32 36 39 38 38 38
80 76 72 66 68 53 54 58 61 68 52 50 47 44 39 39 40 39 42 41 40 39 40 38 38 39 40 40 40 39 36 38 40 41 43 40 42 39 35 38 37 38 37 36 35
86 82 78 69 71 62 66 66 69 51 51 46 44 43 41 35 40 38 42 42 40 38 37 38 40 37 35 37 36 39 39 40 41 41 41 41 41 36 35 34 33 31 32 33 30
91 88 81 72 75 71 71 76 61 55 50 47 46 45 43 41 38 35 35 33 31 31 31 34 38 38 39 40 41 41 43 39 43 43 44 42 38 29 24 24 25 29 31 31 30
94 93 83 77 77 81 76 70 54 61 54 50 47 43 37 35 36 33 34 32 31 28 29 33 37 39 41 42 43 43 39 42 45 47 45 44 39 28 24 25 28 29 27 28 28
95 92 84 80 77 84 73 78 66 58 57 50 49 41 36 36 33 34 34 36 32 31 32 32 35 36 40 43 39 39 41 40 41 45 43 40 35 25 27 32 32 31 28 28 27
94 93 86 82 68 72 69 67 63 55 52 48 48 43 39 35 32 29 32 30 32 34 34 29 32 30 34 37 39 40 42 42 42 39 38 40 37 27 25 30 29 25 27 27 25
91 93 89 86 69 72 69 72 59 63 50 47 41 41 42 39 36 33 28 32 32 30 29 30 32 32 31 32 35 36 38 40 39 39 40 39 35 25 27 31 25 28 31 29 25
84 94 88 85 73 67 63 69 71 57 53 47 42 43 42 42 39 38 31 30 27 24 25 27 26 28 27 21 23 30 32 36 37 40 39 36 29 28 28 21 29 35 32 27 28
80 92 65 78 55 67 69 68 68 57 58 53 45 44 45 43 41 38 34 31 27 22 22 22 18 17 17 22 27 30 31 31 35 36 38 29 32 25 22 30 36 38 35 33 33
80 91 78 58 65 64 63 62 68 67 61 53 43 45 46 47 41 33 26 27 30 25 22 21 17 18 18 21 24 28 31 35 36 33 35 37 34 21 33 34 36 39 37 34 29
84 80 62 73 61 62 71 61 54 60 58 50 43 40 45 42 38 35 39 33 32 27 27 26 21 21 19 20 24 31 28 27 27 29 29 31 27 33 35 37 38 33 30 30 29
Wind_Direction
241 240 241 239 240 237 241 239 239 238 234 229 234 236 237 237 241 240 234 233 228 228 229 229 229 233 233 238 238 237 240 244 249 261 266 275 296 288 265 281 296 305 306 300 287
238 240 239 241 240 238 239 242 240 240 235 238 236 235 236 238 240 240 236 234 231 229 230 229 229 230 234 239 240 241 240 241 252 257 264 271 275 284 292 288 278 279 281 282 288
243 239 241 239 237 238 240 241 242 242 241 239 233 235 237 233 239 242 238 236 233 231 230 230 232 231 233 241 245 244 247 240 247 258 259 261 268 275 282 285 291 288 283 278 280
242 245 242 242 241 239 240 242 242 242 241 240 239 234 234 233 236 241 242 236 236 232 232 231 231 232 231 237 242 248 247 247 246 254 261 262 263 262 267 273 280 281 284 283 281
241 241 243 242 243 243 238 240 240 242 241 240 240 237 234 233 232 234 241 237 236 234 232 233 232 233 233 234 241 243 246 250 250 254 262 263 259 262 262 267 275 280 282 282 284
237 240 242 243 242 243 243 239 239 240 240 239 239 238 236 234 233 232 237 239 237 238 231 231 233 233 235 234 237 243 248 250 255 255 256 263 265 261 261 266 270 277 282 283 288
236 237 240 242 243 242 240 239 239 238 238 237 236 237 236 241 235 232 233 239 239 239 239 234 232 235 236 237 235 240 246 248 253 258 259 260 265 261 263 263 266 274 277 282 288
235 234 235 239 242 243 242 239 237 238 237 236 235 236 235 239 238 236 234 234 237 239 238 238 236 236 236 239 239 240 248 251 251 255 257 261 264 265 264 265 267 271 274 279 287
231 234 233 234 238 240 242 240 237 235 236 236 235 235 234 237 237 237 233 236 236 238 239 240 240 240 242 242 243 244 246 252 255 254 256 259 263 266 266 270 271 275 275 276 284
228 231 232 232 233 238 240 242 240 238 235 235 235 234 233 236 236 238 237 238 239 240 240 240 243 244 245 252 245 244 247 248 256 257 255 257 257 265 264 264 269 271 272 275 282
228 226 229 231 230 233 237 239 240 240 240 240 238 237 235 235 238 239 238 240 240 242 244 245 245 248 251 251 255 250 247 248 249 252 252 257 261 264 267 263 268 270 271 275 280
228 223 225 225 231 232 235 237 240 241 240 239 237 234 235 236 237 238 240 240 243 244 246 246 247 252 246 248 251 256 254 249 248 252 256 253 257 262 267 267 262 263 270 272 275
226 223 220 213 231 235 232 238 242 243 243 238 238 235 235 234 235 238 242 242 241 242 243 247 246 244 247 248 251 252 255 256 255 255 261 260 253 254 262 265 263 262 271 269 272
223 222 217 216 226 237 230 237 239 240 244 239 236 236 236 234 233 236 240 242 241 241 242 243 243 244 249 253 254 255 257 258 257 258 258 261 257 251 253 259 264 267 258 262 273
219 219 216 214 215 223 227 233 233 235 239 240 235 237 233 237 230 235 236 239 242 243 244 248 245 246 249 253 254 255 252 255 255 257 260 260 265 263 261 263 267 267 265 267 267
215 215 216 211 212 222 220 231 229 230 233 239 238 236 232 236 232 229 236 238 238 237 239 242 243 242 243 245 250 254 256 259 260 260 260 263 264 265 267 262 260 265 267 267 266
212 211 213 207 209 224 218 226 227 227 233 235 240 236 233 232 237 233 237 240 243 246 245 246 248 247 246 248 251 257 261 263 262 260 263 259 259 265 269 265 263 263 262 264 261
209 209 209 205 207 224 216 220 226 230 234 238 238 235 235 233 234 230 233 236 238 241 243 244 246 251 254 251 250 250 251 254 260 262 263 263 266 276 275 268 262 258 258 258 259
207 206 205 201 205 220 215 221 217 219 228 230 233 234 234 235 237 230 234 238 237 237 242 245 246 246 245 240 240 245 248 254 258 261 264 266 272 276 270 261 257 253 250 253 259
205 205 200 200 204 217 226 223 218 222 222 227 231 233 236 238 236 233 228 230 228 233 241 244 243 240 240 240 241 246 247 250 257 262 265 268 267 269 254 248 248 251 254 255 257
203 201 195 197 210 223 224 214 213 224 219 225 229 229 231 230 229 228 227 228 230 238 243 242 241 241 241 245 243 247 252 253 257 258 263 265 265 261 250 249 255 259 257 255 255
201 198 193 194 210 221 224 216 215 214 216 220 223 228 231 230 227 227 227 227 230 236 241 243 245 242 242 243 242 241 244 247 250 255 261 260 258 265 254 254 255 252 252 248 251
200 196 193 199 211 214 214 212 214 215 215 213 221 224 227 224 223 219 224 230 235 239 243 245 246 247 245 245 246 251 250 248 249 251 255 258 263 257 257 257 240 249 251 253 252
199 195 191 204 214 216 215 209 215 209 213 217 217 219 224 223 221 219 228 228 228 234 238 243 251 254 253 249 244 249 253 249 248 252 255 256 264 254 252 239 249 247 249 254 258
196 194 189 207 213 211 208 210 218 212 211 214 210 217 224 221 221 220 225 227 225 232 241 243 250 263 256 246 243 251 244 247 249 254 254 252 249 247 240 236 241 245 248 252 254
195 188 195 201 205 213 209 209 210 218 214 212 210 213 220 217 224 223 229 235 230 237 243 248 251 256 259 259 253 249 243 241 243 249 252 257 254 238 234 240 249 257 257 256 258
187 183 199 202 204 209 213 207 214 203 210 212 214 218 219 219 222 219 220 223 221 233 240 244 246 257 259 259 257 248 239 251 251 247 245 244 242 235 240 245 252 257 264 264 267